Etusivu
METAR-TAF:

METAR-TAF

Lentoasemat :

Bryan, Texas, Yhdysvallat

Leveyspiiri: 30-42-56N, Pituuspiiri: 096-19-53W, korkeus merenpinnasta: 112 m

Tämänhetkinen sää

Tämä raportti tehtiin 23 minuuttia sitten, kello 06.15 UTC
Tuuli 5 kn lounaasta
Lämpötila 17°C
Kosteus 48%
Ilmanpaine 1020 hPa
Näkyvyys: 16.1 km
selkeää

METAR: KCFD 300615Z AUTO 22005KT 10SM CLR 17/06 A3011 RMK AO2 T01650060

Aika: 00:38 (06:38 UTC)


TAF: puuttuu

Säähavainnot ja -ennusteet yli 4000 lentoasemalta (METAR- ja TAF-raportit).

Käytössä olevat sääasemat on merkitty karttaan keltaisilla ja punaisilla pisteillä.

Aseta hiiri pisteen päälle nähdäksesi sääaseman nimen.

Klikkaa sitten nähdäksesi säähavainnot ja -ennusteet.

Kartan vaihtaminen: klikkaa mustalla rastilla varustettuja vihreitä pisteitä, niin voit zoomata sisään; viivalla varustettua vihreää pistettä, niin voit zoomata ulos tai vihreitä nuolia, niin pääset viereisille kartoille.


METAR-TAF: